Location: Acheville
(50.3840°N, 2.8827°E)
Time: 16:50:20
(UTC+00:00)

Daily predictions for brighter satellites

Satellite Brightness Start Highest point End
(mag) Time Altitude Azimuth Time Altitude Azimuth Time Altitude Azimuth
Meteor 1-11 Rocket 4.2 20:01:13 10° N 20:07:02 52° ENE 20:12:44 10° SSE
Resurs 1-3 4.0 20:07:38 10° S 20:11:59 65° WSW 20:16:22 10° NNW
Cosmos 1898 Rocket 4.4 20:09:49 10° SSE 20:14:25 31° E 20:19:03 10° NE
CZ-2C R/B 4.3 20:11:56 10° NNE 20:16:09 37° E 20:20:26 10° SSE
Cosmos 923 Rocket 4.1 20:13:55 10° NNW 20:19:14 84° ENE 20:24:33 10° SSE
USA 245 3.4 20:19:04 10° SE 20:21:09 28° ENE 20:23:29 10° N
ARIANE 5 R/B 3.4 20:19:17 10° SE 20:23:16 37° ENE 20:27:18 10° N
Cosmos 1271 Rocket 2.8 20:19:37 10° S 20:23:35 64° E 20:27:33 10° NNE
Cosmos 2278 Rocket 2.7 20:21:33 10° SW 20:27:11 69° WNW 20:32:52 10° NNE
Cosmos 1461 4.1 20:23:36 10° S 20:27:33 27° ESE 20:31:27 10° ENE
Cosmos 1666 3.0 20:26:37 10° NNW 20:30:19 66° W 20:34:01 10° S
Cosmos 2369 Rocket 3.7 20:27:01 10° SE 20:30:33 17° E 20:34:08 10° ENE
Cosmos 1818 3.7 20:25:44 10° NW 20:31:15 79° NE 20:36:36 11° SE
Meteor 1-10 Rocket 4.2 20:27:09 10° S 20:32:46 75° E 20:38:31 10° NNE
SL-24 R/B - RUBIN 2 4.1 20:28:00 10° NW 20:33:32 73° SW 20:38:18 10° SSE
Landsat 7 3.9 20:29:18 10° SSE 20:34:04 83° WSW 20:38:52 10° NNW
Cosmos 1536 3.0 20:32:16 10° N 20:36:15 56° ENE 20:40:06 11° SSE
ERBS 2.3 20:34:13 10° WNW 20:37:30 66° SW 20:40:21 13° SE
Cosmos 2154 Rocket 4.1 20:37:58 10° N 20:44:18 73° ENE 20:50:33 10° SSE
SPOT 5 3.6 20:39:51 11° SE 20:44:39 48° ENE 20:49:47 10° N
Cosmos 1812 4.0 20:42:29 10° SSW 20:46:11 43° WNW 20:49:54 10° N
OBJECT-B 3.9 20:45:06 10° WSW 20:46:13 11° W 20:47:21 10° WNW
Nadezhda 1 Rocket 4.1 20:40:39 10° S 20:46:48 62° E 20:52:53 10° NNE
Cosmos 2074 Rocket 4.2 20:40:30 10° NNW 20:46:49 77° W 20:53:06 10° S
Cosmos 2184 Rocket 4.2 20:44:11 10° NNW 20:50:23 75° W 20:56:30 10° S
ERS-1 Rocket 3.3 20:49:06 13° SE 20:53:30 55° ENE 20:58:25 10° N
ISS -3.9 20:53:20 10° WSW 20:56:42 74° SSE 21:00:04 10° ENE
Cosmos 2112 Rocket 4.2 20:52:11 10° NNW 20:57:33 74° WSW 21:02:28 12° SSE
Cosmos 1869 Rocket 3.7 20:55:29 10° NNW 20:59:49 76° W 21:04:04 11° S
Cosmos 967 Rocket 4.4 20:55:34 10° SSW 21:01:45 68° ESE 21:08:00 10° NE
JB-3 4.4 21:00:53 10° NNE 21:04:41 56° E 21:08:00 13° S
Spot 2 Rocket 3.5 21:00:39 12° SSE 21:05:22 84° WSW 21:10:27 10° NNW
Cosmos 1937 Rocket 3.6 21:00:35 10° S 21:05:36 56° ESE 21:10:42 10° NNE
Cosmos 44 4.3 21:00:35 10° NW 21:05:42 43° WSW 21:10:07 13° S
Cosmos 1743 2.7 21:04:22 10° N 21:08:15 68° E 21:11:02 18° SSE
Cosmos 2228 Rocket 3.3 21:03:52 10° SSW 21:08:19 73° W 21:12:51 10° N
RESURS DK-1 3.3 21:07:01 10° NNW 21:10:58 39° NE 21:13:58 16° ESE
SPOT 1/Viking Rocket 4.0 21:06:06 10° S 21:11:13 59° W 21:16:21 10° NNW
Cosmos 2084 Rocket 4.4 21:09:17 10° WNW 21:13:15 38° SW 21:16:25 15° S
Resurs 01 Rocket 3.4 21:10:12 10° SSW 21:14:01 28° W 21:17:52 10° NW
Cosmos 1707 Rocket 3.6 21:14:44 14° S 21:18:29 66° E 21:22:54 10° NNE
Meteor 1-27 Rocket 4.0 21:13:06 10° SSW 21:18:59 78° WNW 21:24:59 10° N
CARTOSAT-1 3.8 21:15:33 15° S 21:19:09 69° WSW 21:23:28 10° NNW
Cosmos 2366 rocket 4.4 21:15:01 10° N 21:21:03 49° ENE 21:25:28 18° SE
CZ-4B DEB 4.5 21:22:08 25° SE 21:23:46 57° ENE 21:26:56 10° N
Cosmos 858 Rocket 4.4 21:19:23 10° SSW 21:24:34 76° ESE 21:29:50 10° NNE
Cosmos 1867 4.0 21:23:55 11° S 21:28:38 39° ESE 21:33:43 10° NE
Tianhe-1 3.1 21:26:46 10° SW 21:28:08 15° SSW 21:28:08 15° SSW
SJ 16-02 3.8 21:25:17 10° WSW 21:28:55 24° NW 21:32:34 10° N
DNEPR-1 R/B 4.0 21:23:52 10° SW 21:29:42 89° SE 21:34:33 10° NE
Cosmos 2181 Rocket 4.3 21:25:49 18° SSE 21:30:14 50° E 21:36:07 10° NNE
Meteor 1-19 Rocket 4.4 21:28:38 19° SSE 21:32:21 51° E 21:37:37 10° NNE
Cosmos 44 Rocket 4.1 21:29:09 10° NW 21:34:15 49° NE 21:38:15 16° ESE
Cosmos 2297 3.9 21:28:39 10° SW 21:34:21 76° WNW 21:40:03 10° NNE
BREEZE-M R/B 1.9 21:33:16 10° W 21:35:38 55° SSW 21:36:27 36° SE
SL-27 R/B 3.7 21:33:31 10° N 21:36:31 29° ENE 21:38:02 20° ESE
BREEZE M DEB (TANK) 3.1 21:34:54 10° W 21:37:05 18° SW 21:37:17 18° SSW
Cosmos 1544 4.4 21:37:35 10° NNW 21:40:56 35° W 21:43:38 14° SSW
Cosmos 372 Rocket 3.9 21:36:41 14° S 21:40:58 64° ESE 21:46:02 10° NNE
Terra 1.8 21:38:38 21° SSE 21:41:48 83° WSW 21:46:36 10° NNW
Cosmos 1515 3.6 21:39:36 20° S 21:42:06 88° E 21:45:55 10° N
Cosmos 1733 Rocket 3.0 21:38:11 10° NNW 21:42:32 80° W 21:45:11 23° S
Cosmos 2082 Rocket 4.4 21:40:34 10° WNW 21:44:01 17° W 21:47:28 10° SW
Cosmos 1943 Rocket 2.2 21:38:56 10° SSW 21:44:34 82° WNW 21:50:12 10° NNE
Cosmos 1340 Rocket 4.1 21:41:24 10° NNW 21:45:08 36° W 21:48:11 14° SSW
USA 215 4.2 21:41:17 10° ENE 21:47:32 50° N 21:53:48 10° WNW
Cosmos 1656 Rocket 4.1 21:46:52 22° SSE 21:49:55 42° ESE 21:55:08 10° NE
ATLAS 2AS CENTAUR R/B 4.0 21:44:05 10° NW 21:50:11 30° WSW 21:55:13 13° SSW
Cosmos 2341 Rocket 4.2 21:43:57 10° NNW 21:50:21 74° W 21:55:10 18° S
Okean 1 3.2 21:49:16 22° S 21:51:47 87° WNW 21:55:47 10° N
Cosmos 2218 Rocket 4.0 21:47:25 10° N 21:53:47 83° E 21:58:01 23° SSE
ALOS 2 4.5 21:51:57 13° E 21:54:29 20° ENE 21:57:42 10° NNE
Cosmos 494 Rocket 4.3 21:52:46 10° NNW 21:57:54 59° ENE 22:00:49 25° SE
ARIANE 5 R/B 4.2 21:56:25 11° SSW 21:59:49 27° W 22:03:33 10° NW
SL-8 Rocket 4.1 21:56:06 10° NNW 22:02:26 76° W 22:06:45 21° S
H-2A R/B 3.5 21:59:11 10° NNE 22:03:22 82° WNW 22:05:59 22° SSW
Cosmos 1908 Rocket 3.7 22:00:04 10° N 22:04:32 68° ENE 22:06:34 32° SSE
Cosmos 2298 Rocket 4.3 22:02:56 27° SSE 22:05:35 50° ESE 22:10:42 10° NNE
Cosmos 1461 3.8 22:01:47 10° WSW 22:06:24 56° NW 22:10:56 10° NE
NOSS 2-1 (C) 4.3 22:05:55 10° NW 22:10:28 66° NE 22:14:45 20° ESE
Cosmos 2369 Rocket 2.2 22:08:17 11° SSW 22:13:48 88° WNW 22:19:31 10° NNE
ATLAS CENTAUR R/B 1.0 22:12:29 33° SSW 22:13:57 64° SE 22:17:45 10° NE
NOSS 2-1 (D) 4.2 22:12:46 10° NW 22:17:22 73° NE 22:21:25 22° SE
Cosmos 1238 Rocket 4.3 22:14:45 10° NNW 22:20:08 45° W 22:23:11 20° SSW
Okean 1-7 3.2 22:21:21 37° SSE 22:22:46 57° E 22:27:01 10° NNE
SPOT 5 4.5 22:19:04 14° SSW 22:22:53 30° W 22:27:36 10° NNW
COSMOS 2487 3.8 22:20:54 10° N 22:23:55 28° ENE 22:24:59 23° E
Cosmos 2344 4.3 22:16:54 10° NW 22:25:52 87° NE 22:35:50 18° SE
Spot 4 4.0 22:24:53 31° SE 22:27:06 64° ENE 22:31:55 10° N
Cosmos 2242 Rocket 3.6 22:27:54 36° S 22:29:40 74° E 22:34:10 10° NNE
Cosmos 2150 Rocket 4.0 22:28:55 27° S 22:31:49 74° ESE 22:37:05 10° NNE
Cosmos 1975 3.6 22:28:07 10° NNW 22:31:54 42° W 22:33:30 28° SW
Cosmos 1125 Rocket 3.5 22:31:08 32° S 22:33:27 62° ESE 22:38:37 10° NNE
ISS -3.5 22:30:13 10° W 22:33:35 68° N 22:36:27 14° E
Cosmos 1703 Rocket 3.5 22:34:26 38° S 22:36:06 80° E 22:40:34 10° NNE
Cosmos 1782 Rocket 3.5 22:32:55 10° N 22:37:23 81° ENE 22:38:55 40° SSE
Cosmos 1378 3.4 22:38:54 44° SE 22:39:27 49° E 22:43:05 10° NNE
Cosmos 1607 4.1 22:40:08 10° SW 22:46:37 79° NW 22:53:09 10° NE
RESURS DK-1 3.7 22:45:18 10° NW 22:48:51 27° WSW 22:49:50 25° SW
Cosmos 724 4.4 22:46:12 26° SSW 22:49:42 64° ESE 22:55:54 10° NE
Lacrosse 5 2.0 22:48:53 36° S 22:50:29 49° SE 22:55:24 10° ENE
Cosmos 1934 Rocket 4.2 22:46:17 10° N 22:52:20 59° ENE 22:55:20 30° SE
Cosmos 1805 3.6 22:50:59 10° N 22:54:49 52° ENE 22:55:42 42° ESE
Cosmos 1066 Rocket 4.3 22:55:52 34° SSE 22:58:12 61° E 23:03:42 10° NNE
Cosmos 1356 Rocket 3.5 22:56:19 10° NNW 23:00:38 73° W 23:01:50 45° S
Cosmos 2227 Rocket 3.6 22:57:18 10° NNW 23:02:22 32° NE 23:07:25 10° ESE
Cosmos 2297 Rocket 3.3 22:59:00 10° NNW 23:04:20 40° NE 23:08:40 15° ESE
Cosmos 1821 Rocket 4.1 22:58:18 10° NNW 23:04:41 71° W 23:07:52 31° S
Okean 3 3.3 23:06:38 48° S 23:07:47 89° E 23:12:01 10° N
Meteor 1-12 Rocket 4.4 23:03:55 10° NNW 23:09:43 67° W 23:12:13 34° SSW
SL-27 R/B 4.1 23:08:47 10° NW 23:11:25 22° WSW 23:11:32 22° WSW
Cosmos 1867 4.5 23:06:53 10° WSW 23:12:11 49° NW 23:17:32 10° NE
NOSS 2-1 (E) 4.4 23:09:57 10° NW 23:14:50 59° SW 23:17:30 34° SSE
Cosmos 44 Rocket 4.2 23:10:57 10° NW 23:15:44 37° WSW 23:16:57 32° SSW
Cosmos 1766 3.4 23:12:29 10° N 23:16:24 62° ENE 23:17:13 49° SE
Meteor 1-15 Rocket 4.2 23:11:30 10° NNW 23:17:17 89° W 23:19:48 36° S
Okean 1 Rocket 4.4 23:13:51 10° N 23:17:46 31° ENE 23:19:30 23° ESE
Terra 4.2 23:18:33 10° WSW 23:20:20 12° W 23:22:07 10° WNW
Cosmos 2221 Rocket 3.7 23:23:40 45° SSE 23:24:53 66° E 23:29:25 10° NNE
COSMOS 2455 2.9 23:19:16 10° NW 23:25:20 82° NE 23:28:40 28° SE
Nimbus 7 Rocket 4.4 23:24:09 10° NNE 23:30:02 68° ESE 23:32:34 36° S
USA 215 3.7 23:23:39 10° E 23:30:05 63° NNE 23:36:32 10° WNW
ALOS 2 2.8 23:29:20 43° SSW 23:30:26 57° W 23:34:48 10° NNW
COBE Rocket 4.1 23:31:00 40° S 23:32:50 70° W 23:38:03 10° NNW
Cosmos 1535 Rocket 4.5 23:26:46 10° N 23:33:05 82° W 23:36:02 35° S
Cosmos 1300 Rocket 3.7 23:28:53 10° NNW 23:33:14 63° W 23:34:19 46° SSW
Cosmos 1269 Rocket 4.2 23:28:10 10° NNW 23:33:23 59° WSW 23:35:08 39° SSW
USA 81 4.2 23:29:06 10° N 23:34:24 67° E 23:36:30 36° SSE
Cosmos 1470 3.8 23:31:45 10° N 23:35:27 37° ENE 23:36:35 30° ESE
Cosmos 2251 Rocket 4.1 23:34:47 10° NNW 23:39:56 53° ENE 23:42:53 24° SE
EO 1 Del DPAF 4.3 23:42:13 10° NNE 23:45:35 31° E 23:45:57 30° ESE
Cosmos 1733 3.5 23:42:46 10° NNW 23:46:28 50° W 23:46:57 46° WSW
Cosmos 1842 3.4 23:46:42 51° SE 23:47:16 57° E 23:51:07 10° NNE
Meteor 1-23 Rocket 4.3 23:46:20 34° SSW 23:48:59 77° WNW 23:54:51 10° N
Thor Agena Rocket 3.6 23:45:28 10° NNE 23:50:47 76° ESE 23:52:46 39° S
ATLAS CENTAUR R/B 3.5 23:50:07 10° W 23:53:10 23° NNW 23:56:21 10° NNE
